| time (UTC) | temp C | wind direction | speed KPH | gust KPH | rain 1hr cm | rain 24hr cm | rain mn cm | humidity % | barometer mb |
| 20260506195233 | 11 | 42 | 8.0 | 19.3 | 0.00 | 0.10 | 0.03 | 75 | 1012.2 |
| 20260506194301 | 11 | 44 | 6.4 | 16.1 | 0.00 | 0.10 | 0.03 | 76 | 1012.1 |
| 20260506193306 | 11 | 21 | 11.3 | 25.7 | 0.00 | 0.10 | 0.03 | 76 | 1012.0 |
| 20260506192314 | 11 | 40 | 4.8 | 14.5 | 0.00 | 0.10 | 0.03 | 77 | 1011.9 |
| 20260506191243 | 11 | 42 | 6.4 | 9.7 | 0.00 | 0.10 | 0.03 | 77 | 1011.8 |
| 20260506190243 | 11 | 30 | 4.8 | 14.5 | 0.00 | 0.10 | 0.03 | 76 | 1011.6 |
| 20260506185239 | 11 | 36 | 6.4 | 17.7 | 0.00 | 0.10 | 0.03 | 75 | 1011.4 |
| 20260506184250 | 11 | 37 | 4.8 | 14.5 | 0.00 | 0.10 | 0.03 | 75 | 1011.3 |
| 20260506183225 | 11 | 53 | 6.4 | 16.1 | 0.00 | 0.10 | 0.03 | 74 | 1011.3 |
| 20260506182300 | 12 | 19 | 4.8 | 20.9 | 0.00 | 0.10 | 0.03 | 73 | 1011.1 |
| 20260506181243 | 12 | 15 | 4.8 | 16.1 | 0.00 | 0.10 | 0.03 | 72 | 1010.9 |
| 20260506180244 | 12 | 38 | 3.2 | 11.3 | 0.00 | 0.10 | 0.03 | 71 | 1010.9 |
| 20260506175246 | 12 | 79 | 3.2 | 11.3 | 0.00 | 0.10 | 0.03 | 70 | 1010.7 |
| 20260506174256 | 12 | 44 | 3.2 | 17.7 | 0.00 | 0.10 | 0.03 | 70 | 1010.6 |
| 20260506173235 | 13 | 87 | 6.4 | 16.1 | 0.00 | 0.10 | 0.03 | 68 | 1010.4 |
| 20260506172247 | 13 | 360 | 6.4 | 16.1 | 0.00 | 0.10 | 0.03 | 68 | 1010.3 |
| 20260506171240 | 13 | 20 | 6.4 | 17.7 | 0.00 | 0.10 | 0.03 | 68 | 1010.2 |
| 20260506170242 | 13 | 33 | 4.8 | 17.7 | 0.00 | 0.10 | 0.03 | 68 | 1010.1 |
| 20260506165238 | 13 | 27 | 6.4 | 20.9 | 0.00 | 0.10 | 0.03 | 67 | 1010.0 |
| 20260506164238 | 14 | 27 | 12.9 | 22.5 | 0.00 | 0.10 | 0.03 | 67 | 1009.9 |
| 20260506163249 | 15 | 35 | 6.4 | 19.3 | 0.00 | 0.10 | 0.03 | 66 | 1009.8 |
| 20260506162306 | 15 | 19 | 9.7 | 19.3 | 0.00 | 0.10 | 0.03 | 66 | 1009.7 |
| 20260506161250 | 15 | 9 | 6.4 | 17.7 | 0.00 | 0.10 | 0.03 | 67 | 1009.6 |
| 20260506160232 | 15 | 360 | 9.7 | 19.3 | 0.00 | 0.10 | 0.03 | 65 | 1009.7 |
| 20260506155230 | 15 | 360 | 11.3 | 17.7 | 0.00 | 0.10 | 0.03 | 65 | 1009.6 |
| 20260506154231 | 15 | 5 | 9.7 | 16.1 | 0.00 | 0.10 | 0.03 | 63 | 1009.6 |
| 20260506153240 | 15 | 24 | 8.0 | 17.7 | 0.00 | 0.10 | 0.03 | 63 | 1009.5 |
| 20260506152251 | 15 | 355 | 8.0 | 17.7 | 0.00 | 0.10 | 0.03 | 63 | 1009.6 |
| 20260506151234 | 15 | 350 | 8.0 | 16.1 | 0.00 | 0.10 | 0.03 | 64 | 1009.5 |
| 20260506150240 | 15 | 15 | 9.7 | 17.7 | 0.00 | 0.10 | 0.03 | 66 | 1009.5 |
| 20260506145234 | 15 | 350 | 8.0 | 17.7 | 0.00 | 0.10 | 0.03 | 68 | 1009.6 |
| 20260506144235 | 15 | 339 | 9.7 | 17.7 | 0.00 | 0.10 | 0.03 | 69 | 1009.4 |
| 20260506143246 | 15 | 323 | 11.3 | 19.3 | 0.00 | 0.10 | 0.03 | 67 | 1009.4 |
| 20260506142259 | 15 | 355 | 9.7 | 20.9 | 0.00 | 0.10 | 0.03 | 67 | 1009.5 |
| 20260506141241 | 15 | 290 | 11.3 | 22.5 | 0.00 | 0.10 | 0.03 | 66 | 1009.4 |
| 20260506140251 | 15 | 346 | 11.3 | 19.3 | 0.00 | 0.10 | 0.03 | 67 | 1009.5 |
| 20260506135231 | 16 | 342 | 9.7 | 19.3 | 0.00 | 0.10 | 0.03 | 65 | 1009.6 |
| 20260506134227 | 15 | 316 | 9.7 | 16.1 | 0.00 | 0.10 | 0.03 | 66 | 1009.4 |
| 20260506133228 | 15 | 321 | 12.9 | 19.3 | 0.00 | 0.10 | 0.03 | 64 | 1009.4 |
| 20260506132250 | 16 | 348 | 12.9 | 20.9 | 0.00 | 0.10 | 0.03 | 65 | 1009.3 |
| 20260506131233 | 15 | 338 | 9.7 | 19.3 | 0.00 | 0.10 | 0.03 | 69 | 1009.2 |
| 20260506130306 | 13 | 355 | 6.4 | 20.9 | 0.00 | 0.10 | 0.03 | 70 | 1009.2 |
| 20260506125241 | 13 | 328 | 8.0 | 19.3 | 0.00 | 0.10 | 0.03 | 72 | 1009.2 |
| 20260506124240 | 14 | 31 | 9.7 | 17.7 | 0.00 | 0.10 | 0.03 | 72 | 1009.1 |
| 20260506123249 | 15 | 5 | 9.7 | 20.9 | 0.00 | 0.10 | 0.03 | 72 | 1009.2 |
| 20260506122300 | 15 | 355 | 12.9 | 20.9 | 0.00 | 0.10 | 0.03 | 71 | 1009.1 |
| 20260506121254 | 16 | 343 | 6.4 | 17.7 | 0.00 | 0.10 | 0.03 | 72 | 1009.1 |
| 20260506120251 | 15 | 330 | 6.4 | 22.5 | 0.00 | 0.10 | 0.03 | 73 | 1009.1 |
| 20260506115234 | 14 | 29 | 8.0 | 14.5 | 0.00 | 0.10 | 0.03 | 76 | 1009.1 |
| 20260506114250 | 14 | 40 | 4.8 | 14.5 | 0.00 | 0.10 | 0.03 | 75 | 1009.1 |
| 20260506113238 | 15 | 40 | 4.8 | 16.1 | 0.00 | 0.10 | 0.03 | 78 | 1009.1 |
| 20260506112249 | 13 | 5 | 8.0 | 17.7 | 0.00 | 0.10 | 0.03 | 80 | 1009.1 |
| 20260506111300 | 13 | 22 | 6.4 | 11.3 | 0.00 | 0.10 | 0.03 | 82 | 1009.2 |
| 20260506110239 | 13 | 332 | 4.8 | 14.5 | 0.00 | 0.10 | 0.03 | 81 | 1009.2 |
| 20260506105239 | 13 | 355 | 6.4 | 16.1 | 0.00 | 0.10 | 0.03 | 80 | 1009.1 |
| 20260506104249 | 13 | 344 | 6.4 | 17.7 | 0.00 | 0.10 | 0.03 | 79 | 1009.2 |
| 20260506103229 | 14 | 31 | 6.4 | 14.5 | 0.00 | 0.10 | 0.03 | 82 | 1009.1 |
| 20260506102247 | 13 | 306 | 11.3 | 20.9 | 0.00 | 0.10 | 0.03 | 86 | 1009.1 |
| 20260506101227 | 12 | 338 | 8.0 | 14.5 | 0.00 | 0.10 | 0.03 | 89 | 1009.2 |
| 20260506100258 | 12 | 313 | 6.4 | 9.7 | 0.00 | 0.10 | 0.03 | 91 | 1009.2 |
| 20260506095230 | 12 | 355 | 9.7 | 14.5 | 0.00 | 0.10 | 0.03 | 93 | 1009.2 |
| 20260506094245 | 12 | 328 | 6.4 | 12.9 | 0.00 | 0.10 | 0.03 | 95 | 1009.1 |
| 20260506093247 | 11 | 244 | 4.8 | 12.9 | 0.00 | 0.10 | 0.03 | 95 | 1009.1 |
| 20260506092254 | 11 | 300 | 4.8 | 9.7 | 0.00 | 0.10 | 0.03 | 96 | 1009.1 |
| 20260506091246 | 11 | 329 | 6.4 | 12.9 | 0.00 | 0.10 | 0.03 | 96 | 1009.1 |
| 20260506090226 | 11 | 317 | 4.8 | 16.1 | 0.00 | 0.10 | 0.03 | 97 | 1009.0 |
| 20260506085226 | 11 | 328 | 6.4 | 12.9 | 0.00 | 0.10 | 0.03 | 97 | 1009.1 |
| 20260506084228 | 10 | 28 | 6.4 | 16.1 | 0.00 | 0.10 | 0.03 | 97 | 1009.0 |
| 20260506083235 | 10 | 346 | 8.0 | 14.5 | 0.00 | 0.10 | 0.03 | 97 | 1009.0 |
| 20260506082249 | 10 | 12 | 3.2 | 8.0 | 0.10 | 0.10 | 0.03 | 97 | 1009.0 |
| 20260506081232 | 10 | 313 | 4.8 | 12.9 | 0.10 | 0.10 | 0.03 | 97 | 1008.9 |
| 20260506080241 | 10 | 338 | 4.8 | 12.9 | 0.10 | 0.10 | 0.03 | 97 | 1008.9 |
| 20260506073241 | 10 | 305 | 4.8 | 14.5 | 0.10 | 0.10 | 0.03 | 96 | 1008.8 |
| 20260506072252 | 10 | 317 | 6.4 | 14.5 | 0.00 | 0.00 | 0.00 | 96 | 1008.8 |
| 20260506071305 | 9 | 9 | 4.8 | 14.5 | 0.00 | 0.00 | 0.00 | 96 | 1008.7 |
| 20260506070253 | 9 | 351 | 6.4 | 14.5 | 0.00 | 0.00 | 0.00 | 96 | 1008.8 |
| 20260506062255 | 9 | 15 | 9.7 | 14.5 | 0.00 | 0.00 | 0.00 | 94 | 1008.6 |
| 20260506061245 | 9 | 310 | 11.3 | 17.7 | 0.00 | 0.00 | 0.00 | 94 | 1008.4 |
| 20260506060246 | 9 | 61 | 6.4 | 14.5 | 0.00 | 0.00 | 0.00 | 93 | 1008.4 |
| 20260506051230 | 10 | 19 | 6.4 | 17.7 | 0.00 | 0.00 | 0.00 | 90 | 1008.2 |
| 20260506050240 | 10 | 344 | 8.0 | 16.1 | 0.00 | 0.00 | 0.00 | 90 | 1008.3 |
| 20260506044235 | 10 | 332 | 6.4 | 16.1 | 0.00 | 0.00 | 0.00 | 89 | 1008.1 |
| 20260506043245 | 10 | 345 | 8.0 | 20.9 | 0.00 | 0.00 | 0.00 | 89 | 1008.2 |
| 20260506042257 | 10 | 321 | 6.4 | 16.1 | 0.00 | 0.00 | 0.00 | 89 | 1008.1 |
| 20260506041249 | 10 | 9 | 11.3 | 17.7 | 0.00 | 0.00 | 0.00 | 88 | 1008.1 |
| 20260506040230 | 10 | 343 | 11.3 | 19.3 | 0.00 | 0.00 | 0.00 | 88 | 1008.2 |
| 20260506035226 | 10 | 22 | 4.8 | 12.9 | 0.00 | 0.10 | 0.00 | 88 | 1008.2 |
| 20260506034255 | 10 | 32 | 8.0 | 14.5 | 0.00 | 0.10 | 0.00 | 88 | 1008.2 |
| 20260506033233 | 10 | 345 | 6.4 | 22.5 | 0.00 | 0.10 | 0.00 | 87 | 1008.3 |
| 20260506032247 | 10 | 320 | 11.3 | 19.3 | 0.00 | 0.10 | 0.00 | 87 | 1008.2 |
| 20260506031230 | 10 | 360 | 9.7 | 19.3 | 0.00 | 0.10 | 0.00 | 87 | 1008.3 |
| 20260506030241 | 10 | 11 | 6.4 | 17.7 | 0.00 | 0.10 | 0.00 | 86 | 1008.4 |
| 20260506025242 | 10 | 345 | 9.7 | 14.5 | 0.00 | 0.20 | 0.00 | 86 | 1008.4 |
| 20260506024243 | 10 | 16 | 8.0 | 17.7 | 0.00 | 0.20 | 0.00 | 86 | 1008.4 |
| 20260506023249 | 10 | 340 | 4.8 | 14.5 | 0.00 | 0.20 | 0.00 | 86 | 1008.5 |
| 20260506022321 | 10 | 325 | 4.8 | 12.9 | 0.00 | 0.20 | 0.00 | 85 | 1008.5 |
| 20260506021251 | 10 | 12 | 6.4 | 12.9 | 0.00 | 0.20 | 0.00 | 85 | 1008.5 |
| 20260506020231 | 10 | 24 | 6.4 | 17.7 | 0.00 | 0.20 | 0.00 | 85 | 1008.5 |
| 20260506015232 | 10 | 11 | 8.0 | 22.5 | 0.00 | 0.20 | 0.00 | 85 | 1008.5 |
| 20260506014233 | 10 | 346 | 6.4 | 14.5 | 0.00 | 0.20 | 0.00 | 85 | 1008.6 |
| 20260506013303 | 10 | 336 | 6.4 | 19.3 | 0.00 | 0.20 | 0.00 | 85 | 1008.6 |
| 20260506012254 | 10 | 12 | 8.0 | 19.3 | 0.00 | 0.20 | 0.00 | 85 | 1008.7 |
| 20260506011246 | 10 | 5 | 8.0 | 22.5 | 0.00 | 0.20 | 0.00 | 85 | 1008.7 |
| 20260506010243 | 10 | 30 | 4.8 | 17.7 | 0.00 | 0.20 | 0.00 | 85 | 1008.6 |
| 20260506005250 | 10 | 360 | 6.4 | 16.1 | 0.00 | 0.20 | 0.00 | 84 | 1008.7 |
| 20260506004249 | 10 | 346 | 11.3 | 20.9 | 0.00 | 0.20 | 0.00 | 84 | 1008.8 |
| 20260506003228 | 10 | 346 | 6.4 | 17.7 | 0.00 | 0.20 | 0.00 | 84 | 1009.0 |
| 20260506002307 | 10 | 5 | 4.8 | 16.1 | 0.00 | 0.20 | 0.00 | 85 | 1009.0 |
| 20260506001229 | 10 | 11 | 8.0 | 19.3 | 0.00 | 0.20 | 0.00 | 85 | 1009.0 |
| 20260506000229 | 10 | 340 | 6.4 | 20.9 | 0.00 | 0.20 | 0.00 | 85 | 1009.1 |
| 20260505235230 | 10 | 360 | 8.0 | 19.3 | 0.00 | 0.20 | 0.00 | 85 | 1009.1 |
| 20260505234240 | 10 | 345 | 9.7 | 19.3 | 0.00 | 0.20 | 0.00 | 86 | 1009.2 |
| 20260505233241 | 10 | 11 | 6.4 | 17.7 | 0.00 | 0.20 | 0.00 | 86 | 1009.1 |
| 20260505232305 | 10 | 31 | 9.7 | 22.5 | 0.00 | 0.20 | 0.00 | 86 | 1009.2 |
| 20260505231240 | 10 | 14 | 9.7 | 17.7 | 0.00 | 0.20 | 0.00 | 86 | 1009.3 |
| 20260505230236 | 10 | 11 | 6.4 | 16.1 | 0.00 | 0.20 | 0.00 | 87 | 1009.3 |
| 20260505225244 | 10 | 9 | 6.4 | 17.7 | 0.00 | 0.30 | 0.00 | 87 | 1009.4 |
| 20260505224246 | 11 | 26 | 8.0 | 17.7 | 0.00 | 0.30 | 0.00 | 87 | 1009.4 |
| 20260505223240 | 11 | 30 | 9.7 | 19.3 | 0.00 | 0.30 | 0.00 | 87 | 1009.6 |
| 20260505222318 | 11 | 38 | 8.0 | 17.7 | 0.00 | 0.30 | 0.00 | 87 | 1009.6 |
| 20260505221239 | 11 | 32 | 11.3 | 19.3 | 0.00 | 0.30 | 0.00 | 87 | 1009.6 |
| 20260505220251 | 11 | 17 | 8.0 | 19.3 | 0.00 | 0.30 | 0.00 | 87 | 1009.6 |
| 20260505215226 | 11 | 39 | 11.3 | 17.7 | 0.00 | 7.29 | 0.18 | 87 | 1009.6 |
| 20260505214227 | 11 | 27 | 8.0 | 20.9 | 0.00 | 7.29 | 0.18 | 87 | 1009.6 |
| 20260505213229 | 11 | 9 | 11.3 | 19.3 | 0.00 | 7.29 | 0.18 | 87 | 1009.7 |
| 20260505212250 | 11 | 34 | 9.7 | 19.3 | 0.00 | 7.29 | 0.18 | 87 | 1009.6 |
| 20260505211302 | 11 | 37 | 8.0 | 17.7 | 0.00 | 7.29 | 0.18 | 87 | 1009.6 |
| 20260505210240 | 11 | 19 | 9.7 | 17.7 | 0.00 | 7.29 | 0.18 | 88 | 1009.5 |
| 20260505205241 | 11 | 10 | 8.0 | 17.7 | 0.00 | 14.20 | 0.18 | 89 | 1009.7 |
| 20260505204311 | 11 | 360 | 9.7 | 17.7 | 0.00 | 14.20 | 0.18 | 91 | 1009.7 |
| 20260505203226 | 11 | 346 | 6.4 | 20.9 | 0.00 | 14.20 | 0.18 | 93 | 1009.5 |
| 20260505202306 | 11 | 26 | 4.8 | 8.0 | 0.00 | 14.20 | 0.18 | 93 | 1009.5 |
| 20260505201227 | 11 | 24 | 1.6 | 4.8 | 0.00 | 14.20 | 0.18 | 93 | 1009.4 |
| 20260505200225 | 11 | 5 | 1.6 | 3.2 | 0.00 | 14.20 | 0.18 | 93 | 1009.5 |